STARLINK-32208

Last updated on Fri Sep 20 2024 00:02:03 GMT+0000 (Coordinated Universal Time)

1 60598U 24150R 24263.44655388 .00001374 00000+0 44363-4 0 9998 2 60598 53.1593 280.4115 0002191 74.4698 285.6549 15.39609017 5902
UTC large
Height (km)
Speed (km/s)
/
Latitude / Longitude
Inclination (degrees)
Orbital Period (minutes)
Azimuth
Elevation
Range (km)
Doppler Factor

Next 0 passes for location: London (51.5072 / 0.1276)

Sorry there are no passes over London.